2023/02/07 00:00:00,61.3, 0.7
2023/02/07 00:10:00,61.3, 0.8
2023/02/07 00:20:00,61.3, 0.8
2023/02/07 00:30:00,61.3, 0.7
2023/02/07 00:40:00,61.3, 1.1
2023/02/07 00:50:00,61.3, 1.1
2023/02/07 01:00:00,61.3, 0.7
2023/02/07 01:10:00,61.2, 0.8
2023/02/07 01:20:00,61.2, 1.0
2023/02/07 01:30:00,61.2, 1.4
2023/02/07 01:40:00,61.1, 0.9
2023/02/07 01:50:00,61.1, 1.0
2023/02/07 02:00:00,61.1, 1.1
2023/02/07 02:10:00,61.1, 0.9
2023/02/07 02:20:00,61.1, 1.1
2023/02/07 02:30:00,61.0, 1.1
2023/02/07 02:40:00,60.9, 1.6
2023/02/07 02:50:00,60.9, 1.7
2023/02/07 03:00:00,61.0, 1.5
2023/02/07 03:10:00,60.9, 1.5
2023/02/07 03:20:00,60.7, 1.7
2023/02/07 03:30:00,60.7, 1.4
2023/02/07 03:40:00,60.7, 1.7
2023/02/07 03:50:00,60.7, 1.6
2023/02/07 04:00:00,60.6, 2.2
2023/02/07 04:10:00,60.6, 2.1
2023/02/07 04:20:00,60.6, 2.2
2023/02/07 04:30:00,60.7, 2.2
2023/02/07 04:40:00,60.7, 1.4
2023/02/07 04:50:00,60.7, 1.2
2023/02/07 05:00:00,60.6, 1.4
2023/02/07 05:10:00,60.6, 1.6
2023/02/07 05:20:00,60.6, 1.4
2023/02/07 05:30:00,60.5, 2.0
2023/02/07 05:40:00,60.6, 2.0
2023/02/07 05:50:00,60.8, 1.9
2023/02/07 06:00:00,60.7, 2.0
2023/02/07 06:10:00,60.6, 1.8
2023/02/07 06:20:00,60.6, 1.9
2023/02/07 06:30:00,60.4, 1.8
2023/02/07 06:40:00,60.3, 1.6
2023/02/07 06:50:00,60.2, 1.5
2023/02/07 07:00:00,60.1, 1.3
2023/02/07 07:10:00,60.1, 2.2
2023/02/07 07:20:00,60.1, 2.1
2023/02/07 07:30:00,60.1, 2.2
2023/02/07 07:40:00,60.1, 2.3
2023/02/07 07:50:00,60.3, 2.9
2023/02/07 08:00:00,60.3, 2.8
2023/02/07 08:10:00,60.3, 3.1
2023/02/07 08:20:00,60.2, 3.2
2023/02/07 08:30:00,60.2, 2.7
2023/02/07 08:40:00,60.2, 2.9
2023/02/07 08:50:00,60.1, 2.7
2023/02/07 09:00:00,59.8, 2.4
2023/02/07 09:10:00,60.0, 3.1
2023/02/07 09:20:00,59.9, 3.0
2023/02/07 09:30:00,59.9, 3.7
2023/02/07 09:40:00,59.8, 3.9
2023/02/07 09:50:00,59.6, 4.5
2023/02/07 10:00:00,59.3, 5.9
2023/02/07 10:10:00,59.4, 6.7
2023/02/07 10:20:00,59.2, 8.4
2023/02/07 10:30:00,59.0, 9.5
2023/02/07 10:40:00,58.8,10.3
2023/02/07 10:50:00,58.7,10.8
2023/02/07 11:00:00,58.6,10.1
2023/02/07 11:10:00,58.8,10.0
2023/02/07 11:20:00,58.8,10.3
2023/02/07 11:30:00,58.6,10.7
2023/02/07 11:40:00,58.6,10.5
2023/02/07 11:50:00,58.5,10.5
2023/02/07 12:00:00, 0.3,12.0
2023/02/07 12:10:00,24.8,11.7
2023/02/07 12:20:00,33.0,11.3
2023/02/07 12:30:00,24.6,11.8
2023/02/07 12:40:00, 0.0,12.3
2023/02/07 12:50:00, 0.0,11.8
2023/02/07 13:00:00, 0.0,12.6
2023/02/07 13:10:00, 0.0,12.4
2023/02/07 13:20:00, 0.0,11.6
2023/02/07 13:30:00,---,11.8
2023/02/07 13:40:00, 8.4,11.8
2023/02/07 13:50:00,---,11.8
2023/02/07 14:00:00,15.3,11.0
2023/02/07 14:10:00, 0.0,13.1
2023/02/07 14:20:00, 0.0,13.1
2023/02/07 14:30:00, 6.6,10.4
2023/02/07 14:40:00,55.5, 8.5
2023/02/07 14:50:00,56.0, 8.5
2023/02/07 15:00:00,56.5, 7.9
2023/02/07 15:10:00,56.7, 8.1
2023/02/07 15:20:00,56.2, 8.0
2023/02/07 15:30:00,55.7, 7.8
2023/02/07 15:40:00,55.5, 8.0
2023/02/07 15:50:00,55.5, 7.6
2023/02/07 16:00:00,55.5, 7.8
2023/02/07 16:10:00,55.5, 7.1
2023/02/07 16:20:00,55.7, 6.7
2023/02/07 16:30:00,55.8, 6.4
2023/02/07 16:40:00,55.7, 6.3
2023/02/07 16:50:00,55.8, 5.7
2023/02/07 17:00:00,55.7, 4.6
2023/02/07 17:10:00,55.7, 4.1
2023/02/07 17:20:00,55.7, 3.9
2023/02/07 17:30:00,55.8, 4.2
2023/02/07 17:40:00,55.8, 3.9
2023/02/07 17:50:00,55.7, 3.9
2023/02/07 18:00:00,55.7, 3.4
2023/02/07 18:10:00,55.7, 4.2
2023/02/07 18:20:00,55.6, 3.6
2023/02/07 18:30:00,55.7, 3.8
2023/02/07 18:40:00,55.5, 3.9
2023/02/07 18:50:00,55.5, 4.0
2023/02/07 19:00:00,55.5, 4.1
2023/02/07 19:10:00,55.5, 3.4
2023/02/07 19:20:00,55.5, 3.5
2023/02/07 19:30:00,55.4, 3.6
2023/02/07 19:40:00,55.5, 3.3
2023/02/07 19:50:00,55.5, 3.2
2023/02/07 20:00:00,55.5, 2.6
2023/02/07 20:10:00,55.5, 2.9
2023/02/07 20:20:00,55.5, 2.8
2023/02/07 20:30:00,55.5, 2.8
2023/02/07 20:40:00,55.5, 3.2
2023/02/07 20:50:00,55.5, 2.7
2023/02/07 21:00:00,55.5, 2.6
2023/02/07 21:10:00,55.5, 2.2
2023/02/07 21:20:00,55.5, 1.7
2023/02/07 21:30:00,55.5, 1.3
2023/02/07 21:40:00,55.5, 1.0
2023/02/07 21:50:00,55.5, 0.7
2023/02/07 22:00:00,55.6, 0.4
2023/02/07 22:10:00,55.6, 0.5
2023/02/07 22:20:00,55.7, 0.6
2023/02/07 22:30:00,55.6, 0.5
2023/02/07 22:40:00,55.6, 0.4
2023/02/07 22:50:00,55.6, 0.3
2023/02/07 23:00:00,55.6, 0.6
2023/02/07 23:10:00,55.6, 0.6
2023/02/07 23:20:00,55.6, 0.2
2023/02/07 23:30:00,55.5,-0.1
2023/02/07 23:40:00,55.6, 0.3
2023/02/07 23:50:00,55.5,-0.2
